CDT,Max TemperatureF,Mean TemperatureF,Min TemperatureF,Max Dew PointF,MeanDew PointF,Min DewpointF,Max Humidity, Mean Humidity, Min Humidity, Max Sea Level PressureIn, Mean Sea Level PressureIn, Min Sea Level PressureIn, Max VisibilityMiles, Mean VisibilityMiles, Min VisibilityMiles, Max Wind SpeedMPH, Mean Wind SpeedMPH, Max Gust SpeedMPH,PrecipitationIn, CloudCover, Events, WindDirDegrees
2013-6-1,75,64,51,64,58,48,94,84,68,29.72,29.65,29.61,10,10,5,22,7,28,0.24,3,Thunderstorm,171
2013-6-2,57,48,42,46,39,37,93,73,51,30.05,29.91,29.69,10,10,5,22,15,31,0.39,5,,350
2013-6-3,64,52,39,48,42,36,93,71,45,30.14,30.06,30.01,10,10,10,12,6,17,0.00,0,,165
2013-6-4,55,50,46,45,38,30,93,68,41,30.25,30.20,30.14,10,10,10,10,6,,0.07,5,,103
2013-6-5,55,50,46,48,44,36,93,78,66,30.20,30.13,30.04,10,10,9,10,6,,0.03,8,,84
2013-6-6,55,52,48,46,43,37,87,72,51,30.05,30.01,29.98,10,10,9,12,7,,0.00,8,,47
2013-6-7,69,60,51,48,43,37,76,57,37,30.03,29.98,29.94,10,10,10,10,5,,0.00,4,,358
2013-6-8,69,58,48,54,45,43,88,64,38,30.06,30.00,29.93,10,10,10,10,2,,0.01,3,,127
2013-6-9,69,60,50,57,51,41,82,71,62,30.07,30.01,29.92,10,10,10,12,7,,0.00,2,,105
2013-6-10,71,63,55,61,55,52,94,75,64,29.91,29.85,29.82,10,10,5,9,7,,0.00,3,,75
2013-6-11,78,66,53,63,58,52,94,76,54,29.91,29.85,29.80,10,8,2,13,3,18,0.00,1,,260
2013-6-12,73,64,55,59,53,48,94,69,41,29.93,29.85,29.73,10,9,2,14,5,,0.01,3,,68
2013-6-13,69,63,57,54,51,48,82,68,53,30.10,29.96,29.79,10,10,10,18,13,25,0.00,0,,3
2013-6-14,68,60,51,50,43,32,82,58,34,30.18,30.11,30.01,10,10,10,10,7,,0.00,0,,58
2013-6-15,66,60,55,61,49,36,100,68,42,30.04,29.94,29.78,10,9,2,13,5,17,1.19,6,Thunderstorm,148
2013-6-16,80,70,59,61,57,50,100,70,37,29.94,29.84,29.80,10,8,0,17,9,25,0.01,4,Thunderstorm,278
2013-6-17,64,58,51,55,53,45,94,78,68,30.06,29.95,29.86,10,10,10,13,7,16,0.03,3,Thunderstorm,50
2013-6-18,55,56,46,52,42,34,87,60,32,30.14,30.11,30.05,10,10,10,13,7,16,0.00,0,,33
2013-6-19,69,57,46,48,43,36,93,54,43,30.18,30.13,30.09,10,10,10,16,8,18,0.00,0,,161
2013-6-20,75,65,55,57,49,37,60,53,45,30.15,30.12,30.10,10,10,10,16,10,22,0.00,0,,186
2013-6-21,78,68,59,68,60,50,100,75,52,30.12,30.01,29.89,10,9,2,21,10,29,0.13,3,Thunderstorm,201
2013-6-22,69,62,57,64,60,55,100,92,82,30.10,30.04,29.95,10,8,0,20,5,26,0.00,5,,38
2013-6-23,78,68,57,70,65,55,100,87,73,30.03,29.92,29.85,10,8,1,17,7,24,0.13,2,Thunderstorm,174
2013-6-24,82,74,66,72,67,64,94,81,66,29.97,29.91,29.85,10,10,10,14,7,16,0.00,1,,209
2013-6-25,80,73,64,70,67,63,94,84,61,29.88,29.85,29.81,10,10,5,16,8,20,0.27,2,Thunderstorm,210
2013-6-26,77,70,64,70,65,61,100,84,69,29.82,29.79,29.73,10,10,7,14,7,16,0.00,1,,156
2013-6-27,71,66,60,66,62,59,100,92,83,29.80,29.75,29.69,10,10,7,12,5,,0.20,4,Thunderstorm,132
2013-6-28,71,66,60,64,62,57,94,87,73,29.68,29.65,29.63,10,10,5,17,7,23,0.01,5,Thunderstorm,343
2013-6-29,71,64,60,61,56,46,94,75,59,29.88,29.75,29.66,10,10,10,21,12,26,0.00,6,,9
2013-6-30,75,66,57,54,48,43,72,53,33,30.08,29.99,29.88,10,10,10,16,11,22,0.00,0,,13